Location: *
(43.7000°S, 168.7000°W)
Time: 11:39:37
(UTC+00:00)

NOSS 3-1 (C) - Pass Details

Date: 07 July 2020
Orbit: 752 x 1456 km, 63.4° (Epoch: 15 June)

Event Time Altitude Azimuth Distance (km) Brightness Sun altitude
Exits shadow 17:31:45 10° 216° (SW) 2,762 5.4 -13.3°
Maximum altitude 17:38:07 81° 127° (SE) 904 3.4 -12.2°
Drops below altitude 10° 17:43:36 10° 39° (NE) 2,388 6.6 -11.3°
Sets 17:45:52 0° 38° (NE) 3,264 7.4 -10.9°
